Location: Cheyres
(46.8153°N, 6.7877°E)
Time: 12:54:54
(UTC+00:00)

FENGYUN 1C DEB - Pass Details

Date: 30 November 2021
Orbit: 843 x 915 km, 99.0° (Epoch: 18 January)

Event Time Altitude Azimuth Distance (km) Brightness Sun altitude
Exits shadow 18:42:29 26° 356° (N) 1,640 ? -29.3°
Drops below altitude 10° 18:44:50 10° 350° (N) 2,507 ? -29.7°
Sets 18:47:12 0° 348° (NNW) 3,439 ? -30.1°
